Chamberlain, SD

4:52 PM CST on February 19, 2018 (GMT -0600)
Chamberlain

Weather History for K9V9 - March, 2013

Change the Weather History Date:

Tuesday, March 19, 2013

  Actual Average Record
Temperature  
Mean Temperature 27 °F -  
Max Temperature 41 °F 42 °F 80 °F (2004)
Min Temperature 15 °F 22 °F 8 °F (2002)
Degree Days  
Heating Degree Days 38    
Moisture  
Dew Point 12 °F    
Average Humidity 61    
Maximum Humidity 81    
Minimum Humidity 33    
Precipitation  
Precipitation 0.00 in - - ()
Sea Level Pressure  
Sea Level Pressure 30.23 in    
Wind  
Wind Speed 9 mph (NE)    
Max Wind Speed 22 mph    
Max Gust Speed 33 mph    
Averages and records for this station are not official NWS values.
T = Trace of Precipitation, MM = Missing Value Source: NWS Daily Summary

Daily Weather History Graph

Daily Weather History Graph

Search for Another Location

Airport or City:

Trip Planner

Search our weather history database for the weather conditions in past years. The results will help you decide how hot, cold, wet, or windy it might be!

Date:

Astronomy

Mar. 19, 2013 Rise Set
Actual Time 7:41 AM CDT 7:48 PM CDT
Civil Twilight 7:13 AM CDT 8:17 PM CDT
Nautical Twilight 6:39 AM CDT 8:51 PM CDT
Astronomical Twilight 6:05 AM CDT 9:25 PM CDT
Moon 12:22 PM CDT 2:47 AM CDT
Length of Visible Light 13h 04m
Length of Day
12h 07m
Waxing Crescent, 50% of the Moon is Illuminated
Mar 19
Waxing Crescent
Mar 19
First Quarter
Mar 27
Full
Apr 2
Last Quarter
Apr 10
New

Hourly Weather History & Observations

Time (CDT) Temp. Windchill Dew Point Humidity Pressure Visibility Wind Dir Wind Speed Gust Speed Precip Events Conditions
12:52 AM 15.1 °F 5.2 °F 10.0 °F 80% 30.12 in - SSE 6.9 mph - N/A   Unknown
1:52 AM 19.0 °F 13.9 °F 12.0 °F 74% 30.09 in - ESE 3.5 mph - N/A   Unknown
2:52 AM 17.1 °F 11.7 °F 10.9 °F 77% 30.10 in - ESE 3.5 mph - N/A   Unknown
3:52 AM 16.0 °F 8.8 °F 10.9 °F 81% 30.09 in - SE 4.6 mph - N/A   Unknown
4:52 AM 19.0 °F 10.0 °F 12.0 °F 74% 30.08 in - East 6.9 mph - N/A   Unknown
5:52 AM 19.0 °F 10.0 °F 10.9 °F 71% 30.08 in - ESE 6.9 mph - N/A   Unknown
6:52 AM 19.0 °F 10.0 °F 10.9 °F 71% 30.10 in - East 6.9 mph - N/A   Unknown
7:52 AM 18.0 °F 8.7 °F 10.9 °F 74% 30.13 in - ENE 6.9 mph - N/A   Unknown
8:52 AM 19.9 °F 9.3 °F 12.0 °F 71% 30.14 in - SE 9.2 mph - N/A   Unknown
9:52 AM 23.0 °F 13.9 °F 14.0 °F 68% 30.16 in - SSE 8.1 mph - N/A   Unknown
10:52 AM 30.0 °F 22.4 °F 15.1 °F 54% 30.17 in - WSW 8.1 mph - N/A   Unknown
11:52 AM 35.1 °F 27.4 °F 16.0 °F 46% 30.19 in - WNW 10.4 mph - N/A   Unknown
12:52 PM 39.9 °F 32.9 °F 18.0 °F 41% 30.19 in - North 11.5 mph 20.7 mph N/A   Unknown
1:52 PM 39.0 °F 30.6 °F 17.1 °F 41% 30.21 in - North 15.0 mph 25.3 mph N/A   Unknown
2:52 PM 39.0 °F 28.8 °F 15.1 °F 38% 30.22 in - NNW 21.9 mph 32.2 mph N/A   Unknown
3:52 PM 39.0 °F 29.3 °F 12.0 °F 33% 30.24 in - NNW 19.6 mph 31.1 mph N/A   Unknown
4:52 PM 37.0 °F 26.2 °F 15.1 °F 41% 30.27 in - North 21.9 mph 33.4 mph N/A   Unknown
5:52 PM 33.1 °F 22.2 °F 14.0 °F 46% 30.32 in - North 17.3 mph 26.5 mph N/A   Unknown
6:52 PM 28.0 °F 14.6 °F 12.0 °F 51% 30.36 in - North 20.7 mph 27.6 mph N/A   Unknown
7:52 PM 24.1 °F 11.5 °F 10.9 °F 57% 30.40 in - North 15.0 mph 23.0 mph N/A   Unknown
8:52 PM 21.9 °F 10.4 °F 10.9 °F 63% 30.43 in - North 11.5 mph 19.6 mph N/A   Unknown
9:52 PM 19.0 °F 8.2 °F 10.0 °F 68% 30.45 in - North 9.2 mph - N/A   Unknown
10:52 PM 18.0 °F 7.7 °F 9.0 °F 68% 30.46 in - North 8.1 mph - N/A   Unknown
11:52 PM 17.1 °F 5.0 °F 7.0 °F 65% 30.46 in - North 10.4 mph - N/A   Unknown